Content
SEND FEEDBACK

Daily
Averages
Monthly
Summary
Italy

BARI, ITALY


Home > Europe > Italy
Elevation: 144 feet     Latitude: 41 08N     Longitude: 016 47E

WEATHER
 
SELECT A DAY
Number of Records: 299,546;   Date Range: 7/1/96 - 9/30/14
 
SHARE

PRINT THIS DATA

[ ← Previous Day ]
WEATHER ALMANAC - JANUARY 18, 2013
[ Next Day → ]
[ °C ]   °F
Weather ElementAverageHighLow
Temperature41.8 °F48.2 °F (11:20 am)37.4 °F (4:20 am)
Dewpoint33.5 °F35.6 °F (12:50 am)30.2 °F (12:50 pm)
Humidity72.9 %87 % (6:20 pm)50 % (12:50 pm)
Barometer29.38 in29.53 in (11:20 pm)29.33 in (12:50 am)
Wind Speed11.4 mph19.6 mph (8:20 pm)
Wind Gust31.1 mph (3:20 pm)
Weather ElementAverage
Visibility6.2 mi
Wind DirectionWSW (245.7 °)

Weather ElementTotal
Precipitation---
Heating Degree Days22.2 (Base 65)
Averaged from 47 records on January 18, 2013
WEATHER CONDITIONS BREAKOUT
WIND DIRECTION BREAKOUT
WEATHER BY HOUR - JANUARY 18, 2013
[ °C ]   °F
Local TimeTemperatureDewpointHumidityBarometerVisibilityWind DirectionWind SpeedGust SpeedPrecipitationEventsConditions
12:50 AM44.6 °F35.6 °F71 %29.33 in6.2 miWSW (240°)6.9 mphPartly Cloudy
1:20 AM46.4 °F32.0 °F57 %29.33 inWest (260°)13.8 mphClear
1:50 AM44.6 °F32.0 °F61 %29.33 inSW (230°)11.5 mphClear
2:20 AM44.6 °F32.0 °F61 %29.33 inWSW (240°)11.5 mphClear
2:50 AM41.0 °F32.0 °F70 %29.33 inSW (220°)8.1 mphClear
3:20 AM42.8 °F32.0 °F66 %29.33 inSSW (210°)8.1 mphClear
3:50 AM39.2 °F32.0 °F75 %29.33 inSSW (210°)5.8 mphClear
4:20 AM37.4 °F32.0 °F81 %29.33 inSW (220°)4.6 mphClear
4:50 AM39.2 °F32.0 °F75 %29.33 inSSW (210°)9.2 mphClear
5:20 AM41.0 °F32.0 °F70 %29.33 inSSW (200°)5.8 mphClear
5:50 AM41.0 °F32.0 °F70 %29.33 inSouth (190°)5.8 mphClear
6:20 AM41.0 °F32.0 °F70 %29.33 inVariable2.3 mphClear
6:50 AM37.4 °F32.0 °F81 %29.33 inSouth (170°)2.3 mphClear
7:20 AM39.2 °F32.0 °F75 %29.33 inSSW (210°)4.6 mphClear
7:50 AM39.2 °F32.0 °F75 %29.33 inSSW (200°)5.8 mphClear
8:20 AM39.2 °F32.0 °F75 %29.33 inVariable2.3 mphClear
8:50 AM39.2 °F32.0 °F75 %29.33 inSSW (200°)5.8 mphClear
9:20 AM42.8 °F33.8 °F70 %29.33 inSouth (190°)4.6 mphClear
9:50 AM42.8 °F33.8 °F70 %29.36 in6.2 miSW (220°)4.6 mphPartly Cloudy
10:20 AM44.6 °F35.6 °F71 %29.36 in6.2 miSSW (210°)4.6 mphPartly Cloudy
10:50 AM46.4 °F33.8 °F62 %29.33 in6.2 miSSW (210°)8.1 mphPartly Cloudy
11:20 AM48.2 °F33.8 °F58 %29.33 in6.2 miWSW (240°)9.2 mphPartly Cloudy
11:50 AM48.2 °F32.0 °F54 %29.33 in6.2 miWSW (240°)9.2 mphPartly Cloudy
12:20 PM48.2 °F32.0 °F54 %29.33 in6.2 miWest (260°)9.2 mphPartly Cloudy
12:50 PM48.2 °F30.2 °F50 %29.33 in6.2 miWest (270°)6.9 mphPartly Cloudy
1:20 PM46.4 °F33.8 °F62 %29.33 in6.2 miNW (320°)12.7 mphScattered Clouds
1:50 PM44.6 °F35.6 °F71 %29.36 in6.2 miWNW (300°)18.4 mphLight Drizzle
2:20 PM42.8 °F33.8 °F70 %29.36 in6.2 miWNW (290°)17.3 mphScattered Clouds
2:50 PM42.8 °F33.8 °F70 %29.36 in6.2 miWNW (300°)15.0 mphScattered Clouds
3:20 PM42.8 °F33.8 °F70 %29.39 in6.2 miWNW (300°)18.4 mph31.1 mphScattered Clouds
3:50 PM41.0 °F35.6 °F81 %29.39 in6.2 miWNW (290°)15.0 mph27.6 mphScattered Clouds
4:20 PM41.0 °F35.6 °F81 %29.39 in6.2 miWNW (300°)16.1 mphScattered Clouds
4:50 PM41.0 °F35.6 °F81 %29.39 in6.2 miWNW (290°)12.7 mphScattered Clouds
5:20 PM41.0 °F35.6 °F81 %29.42 in6.2 miWNW (290°)15.0 mphScattered Clouds
5:50 PM41.0 °F35.6 °F81 %29.42 in6.2 miWNW (290°)15.0 mphScattered Clouds
6:20 PM39.2 °F35.6 °F87 %29.42 in6.2 miWNW (290°)13.8 mphScattered Clouds
6:50 PM39.2 °F35.6 °F87 %29.44 in6.2 miWNW (300°)18.4 mphScattered Clouds
7:20 PM41.0 °F35.6 °F81 %29.44 in6.2 miWNW (290°)18.4 mphScattered Clouds
7:50 PM39.2 °F35.6 °F87 %29.47 in6.2 miWNW (300°)17.3 mphScattered Clouds
8:20 PM39.2 °F33.8 °F81 %29.47 in6.2 miWNW (300°)19.6 mphScattered Clouds
8:50 PM39.2 °F33.8 °F81 %29.42 in6.2 miWNW (290°)18.4 mphScattered Clouds
9:20 PM39.2 °F33.8 °F81 %29.50 in6.2 miWNW (290°)17.3 mphScattered Clouds
9:50 PM39.2 °F33.8 °F81 %29.50 in6.2 miWNW (300°)18.4 mphScattered Clouds
10:20 PM39.2 °F33.8 °F81 %29.50 in6.2 miWNW (300°)16.1 mphScattered Clouds
10:50 PM39.2 °F33.8 °F81 %29.50 in6.2 miWNW (290°)17.3 mphScattered Clouds
11:20 PM41.0 °F33.8 °F76 %29.53 in6.2 miWNW (290°)17.3 mphScattered Clouds
11:50 PM41.0 °F33.8 °F76 %29.53 in6.2 miWNW (290°)17.3 mphScattered Clouds
Hourly data recorded from LIBD, located miles away from Bari, Italy







STORIES FROM OUR PARTNERS